| time (UTC) | temp F | wind direction | speed MPH | gust MPH | rain 1hr in | rain 24hr in | rain mn in | humidity % | barometer mb |
| 20260905170423 | 56 | 0 | 0.0 | 17.0 | 0.00 | 0.00 | 0.00 | 80 | 1013.1 |
| 20260905164919 | 55 | 139 | 1.0 | 5.0 | 0.00 | 0.00 | 0.00 | 88 | 1013.2 |
| 20260905163415 | 55 | 0 | 0.0 | 3.0 | 0.00 | 0.00 | 0.00 | 90 | 1013.2 |
| 20260905161911 | 54 | 0 | 0.0 | 1.0 | 0.00 | 0.00 | 0.00 | 90 | 1013.2 |
| 20260905160407 | 54 | 0 | 0.0 | 0.0 | 0.00 | 0.00 | 0.00 | 89 | 1013.1 |
| 20260905154904 | 54 | 0 | 0.0 | 0.0 | 0.00 | 0.00 | 0.00 | 89 | 1013.1 |
| 20260905153359 | 54 | 0 | 0.0 | 1.0 | 0.00 | 0.00 | 0.00 | 89 | 1013.1 |
| 20260905151855 | 55 | 0 | 0.0 | 0.0 | 0.00 | 0.00 | 0.00 | 88 | 1013.0 |
| 20260905150352 | 55 | 0 | 0.0 | 0.0 | 0.00 | 0.00 | 0.00 | 88 | 1013.0 |
| 20260905144847 | 55 | 0 | 0.0 | 0.0 | 0.00 | 0.00 | 0.00 | 88 | 1012.8 |
| 20260905141839 | 55 | 0 | 0.0 | 0.0 | 0.00 | 0.00 | 0.00 | 86 | 1012.5 |
| 20260905140334 | 56 | 0 | 0.0 | 0.0 | 0.00 | 0.00 | 0.00 | 85 | 1012.5 |
| 20260905134913 | 56 | 0 | 0.0 | 0.0 | 0.00 | 0.00 | 0.00 | 83 | 1012.4 |
| 20260905134829 | 56 | 0 | 0.0 | 0.0 | 0.00 | 0.00 | 0.00 | 83 | 1012.4 |
| 20260905133325 | 57 | 0 | 0.0 | 0.0 | 0.00 | 0.00 | 0.00 | 80 | 1012.4 |
| 20260905130317 | 58 | 0 | 0.0 | 2.0 | 0.00 | 0.00 | 0.00 | 73 | 1012.4 |
| 20260905124814 | 58 | 131 | 1.0 | 11.0 | 0.00 | 0.00 | 0.00 | 73 | 1012.3 |
| 20260905123310 | 59 | 0 | 0.0 | 3.0 | 0.00 | 0.00 | 0.00 | 74 | 1012.3 |
| 20260905121806 | 59 | 0 | 0.0 | 10.0 | 0.00 | 0.00 | 0.00 | 72 | 1012.4 |
| 20260905120302 | 59 | 0 | 0.0 | 11.0 | 0.00 | 0.00 | 0.00 | 70 | 1012.3 |
| 20260905114758 | 59 | 0 | 0.0 | 4.0 | 0.00 | 0.00 | 0.00 | 73 | 1012.0 |
| 20260905113254 | 60 | 0 | 0.0 | 1.0 | 0.00 | 0.00 | 0.00 | 71 | 1011.7 |
| 20260905111751 | 61 | 0 | 0.0 | 5.0 | 0.00 | 0.00 | 0.00 | 65 | 1011.8 |
| 20260905110246 | 61 | 131 | 2.0 | 10.0 | 0.00 | 0.00 | 0.00 | 62 | 1011.8 |
| 20260905104740 | 61 | 132 | 2.0 | 15.0 | 0.00 | 0.00 | 0.00 | 63 | 1011.9 |
| 20260905101729 | 60 | 0 | 0.0 | 11.0 | 0.00 | 0.00 | 0.00 | 66 | 1012.2 |
| 20260905100224 | 58 | 123 | 3.0 | 15.0 | 0.00 | 0.00 | 0.00 | 71 | 1012.3 |
| 20260905094720 | 56 | 155 | 1.0 | 6.0 | 0.00 | 0.00 | 0.00 | 83 | 1012.4 |
| 20260905093215 | 55 | 0 | 0.0 | 0.0 | 0.00 | 0.00 | 0.00 | 85 | 1012.2 |
| 20260905091712 | 55 | 0 | 0.0 | 1.0 | 0.00 | 0.00 | 0.00 | 87 | 1012.6 |
| 20260905090208 | 55 | 0 | 0.0 | 0.0 | 0.00 | 0.00 | 0.00 | 88 | 1012.7 |
| 20260905084703 | 55 | 0 | 0.0 | 0.0 | 0.00 | 0.00 | 0.00 | 87 | 1013.1 |
| 20260905083200 | 55 | 0 | 0.0 | 0.0 | 0.00 | 0.00 | 0.00 | 86 | 1013.3 |
| 20260905081655 | 56 | 0 | 0.0 | 1.0 | 0.00 | 0.00 | 0.00 | 85 | 1013.6 |
| 20260905080152 | 56 | 0 | 0.0 | 0.0 | 0.00 | 0.00 | 0.00 | 84 | 1013.6 |
| 20260905074648 | 56 | 0 | 0.0 | 3.0 | 0.00 | 0.00 | 0.00 | 82 | 1013.6 |
| 20260905073143 | 57 | 0 | 0.0 | 2.0 | 0.00 | 0.00 | 0.00 | 81 | 1013.8 |
| 20260905071637 | 57 | 302 | 1.0 | 5.0 | 0.00 | 0.00 | 0.00 | 81 | 1013.6 |
| 20260905070132 | 57 | 346 | 3.0 | 7.0 | 0.00 | 0.00 | 0.00 | 81 | 1013.5 |
| 20260905064627 | 58 | 0 | 0.0 | 0.0 | 0.00 | 0.00 | 0.00 | 81 | 1013.5 |
| 20260905063123 | 58 | 0 | 0.0 | 0.0 | 0.00 | 0.00 | 0.00 | 81 | 1013.6 |
| 20260905061619 | 58 | 0 | 0.0 | 0.0 | 0.00 | 0.00 | 0.00 | 81 | 1013.6 |
| 20260905054610 | 58 | 0 | 0.0 | 0.0 | 0.00 | 0.00 | 0.00 | 83 | 1013.8 |
| 20260905053106 | 58 | 0 | 0.0 | 0.0 | 0.00 | 0.00 | 0.00 | 82 | 1014.0 |
| 20260905051601 | 58 | 0 | 0.0 | 2.0 | 0.00 | 0.00 | 0.00 | 82 | 1014.3 |
| 20260905050058 | 58 | 0 | 0.0 | 0.0 | 0.00 | 0.00 | 0.00 | 84 | 1014.4 |
| 20260905044554 | 58 | 0 | 0.0 | 0.0 | 0.00 | 0.00 | 0.00 | 83 | 1014.8 |
| 20260905043050 | 59 | 0 | 0.0 | 1.0 | 0.00 | 0.00 | 0.00 | 83 | 1014.8 |
| 20260905041543 | 59 | 0 | 0.0 | 0.0 | 0.00 | 0.00 | 0.00 | 82 | 1014.9 |
| 20260905040038 | 59 | 0 | 0.0 | 0.0 | 0.00 | 0.00 | 0.00 | 81 | 1015.2 |
| 20260905034534 | 60 | 0 | 0.0 | 0.0 | 0.00 | 0.00 | 0.00 | 79 | 1015.2 |
| 20260905033029 | 60 | 0 | 0.0 | 0.0 | 0.00 | 0.00 | 0.00 | 76 | 1015.3 |
| 20260905031525 | 61 | 0 | 0.0 | 0.0 | 0.00 | 0.00 | 0.00 | 74 | 1015.3 |
| 20260905030021 | 62 | 0 | 0.0 | 0.0 | 0.00 | 0.00 | 0.00 | 73 | 1015.2 |
| 20260905024517 | 62 | 0 | 0.0 | 0.0 | 0.00 | 0.00 | 0.00 | 70 | 1015.4 |
| 20260905023011 | 63 | 0 | 0.0 | 6.0 | 0.00 | 0.00 | 0.00 | 66 | 1015.6 |
| 20260905020002 | 64 | 0 | 0.0 | 6.0 | 0.00 | 0.00 | 0.00 | 65 | 1015.7 |
| 20260905014457 | 64 | 0 | 0.0 | 0.0 | 0.00 | 0.00 | 0.00 | 65 | 1015.7 |
| 20260905012953 | 65 | 0 | 0.0 | 1.0 | 0.00 | 0.00 | 0.00 | 60 | 1015.8 |
| 20260905011449 | 65 | 330 | 1.0 | 6.0 | 0.00 | 0.00 | 0.00 | 62 | 1016.0 |
| 20260905005946 | 66 | 0 | 0.0 | 0.0 | 0.00 | 0.00 | 0.00 | 58 | 1015.9 |
| 20260905004441 | 65 | 0 | 0.0 | 1.0 | 0.00 | 0.00 | 0.00 | 56 | 1016.2 |
| 20260905002935 | 66 | 0 | 0.0 | 4.0 | 0.00 | 0.00 | 0.00 | 57 | 1016.5 |
| 20260905001432 | 66 | 301 | 3.0 | 10.0 | 0.00 | 0.00 | 0.00 | 53 | 1016.7 |
| 20260904235927 | 66 | 0 | 0.0 | 4.0 | 0.00 | 0.00 | 0.00 | 53 | 1016.6 |
| 20260904234423 | 65 | 0 | 0.0 | 6.0 | 0.00 | 0.00 | 0.00 | 54 | 1016.8 |
| 20260904232918 | 65 | 262 | 4.0 | 10.0 | 0.00 | 0.00 | 0.00 | 53 | 1016.9 |
| 20260904231414 | 65 | 310 | 2.0 | 10.0 | 0.00 | 0.00 | 0.00 | 55 | 1017.0 |
| 20260904224407 | 63 | 0 | 0.0 | 10.0 | 0.00 | 0.00 | 0.00 | 59 | 1017.3 |
| 20260904222900 | 62 | 291 | 3.0 | 11.0 | 0.00 | 0.00 | 0.00 | 65 | 1017.4 |
| 20260904215850 | 59 | 0 | 0.0 | 4.0 | 0.00 | 0.00 | 0.00 | 69 | 1017.4 |
| 20260904214347 | 58 | 0 | 0.0 | 1.0 | 0.00 | 0.00 | 0.00 | 70 | 1017.8 |
| 20260904212842 | 58 | 0 | 0.0 | 0.0 | 0.00 | 0.00 | 0.00 | 71 | 1017.9 |
| 20260904211338 | 57 | 0 | 0.0 | 0.0 | 0.00 | 0.00 | 0.00 | 76 | 1018.0 |
| 20260904205835 | 57 | 0 | 0.0 | 2.0 | 0.00 | 0.00 | 0.00 | 78 | 1018.1 |
| 20260904202827 | 56 | 0 | 0.0 | 0.0 | 0.00 | 0.00 | 0.00 | 80 | 1018.3 |
| 20260904201322 | 55 | 0 | 0.0 | 0.0 | 0.00 | 0.00 | 0.00 | 78 | 1018.3 |
| 20260904194312 | 55 | 0 | 0.0 | 0.0 | 0.00 | 0.00 | 0.00 | 81 | 1018.0 |
| 20260904192810 | 54 | 0 | 0.0 | 0.0 | 0.00 | 0.00 | 0.00 | 81 | 1018.2 |
| 20260904191305 | 54 | 0 | 0.0 | 1.0 | 0.00 | 0.00 | 0.00 | 84 | 1017.9 |
| 20260904185801 | 53 | 0 | 0.0 | 0.0 | 0.00 | 0.00 | 0.00 | 84 | 1018.0 |
| 20260904184257 | 53 | 0 | 0.0 | 0.0 | 0.00 | 0.00 | 0.00 | 87 | 1017.9 |
| 20260904182752 | 52 | 0 | 0.0 | 0.0 | 0.00 | 0.00 | 0.00 | 88 | 1018.0 |
| 20260904181249 | 51 | 0 | 0.0 | 2.0 | 0.00 | 0.00 | 0.00 | 88 | 1018.0 |
| 20260904175744 | 50 | 0 | 0.0 | 3.0 | 0.00 | 0.00 | 0.00 | 89 | 1018.0 |
| 20260904174241 | 49 | 0 | 0.0 | 1.0 | 0.00 | 0.00 | 0.00 | 89 | 1018.4 |
| 20260904172737 | 48 | 0 | 0.0 | 4.0 | 0.00 | 0.00 | 0.00 | 90 | 1018.0 |